Flag for Philippines Weather past 2 weeks in Mabalacat, Philippines

Now
81 °F

Partly cloudy.


Feels Like: 87 °F
Forecast: 79 / 92 °F
Wind: 5 mph from Northwest

Location: Clarkfield Pampanga International Airport

Current Time: May 24, 2015 at 12:08:41 AM

Latest Report: May 23, 2015 at 11:00 PM


Visibility: N/A

Pressure: 29.92 "Hg

Humidity: 89%

Dew point: 77 °F

Location of MabalacatLocation

Historic Weather in Mabalacat — Graph

°F

Mabalacat temperature yesterday

Maximum temperature yesterday: 91 °F (at 12:00 PM)
Minimum temperature yesterday: 79 °F (at 12:00 AM)
Average temperature yesterday: 84 °F

Past Weeks' High & Low Weather Summary

 TemperatureHumidityPressure
High97 °F (May 16, 4:00 PM)100% (May 9, 4:00 AM)30.01 "Hg (May 9, 4:00 AM)
Low75 °F (May 9, 4:00 AM)32% (May 16, 4:00 PM)29.71 "Hg (May 9, 2:00 PM)
Average84 °F71%29.86 "Hg
* Reported May 8 11:00 PM — May 23 11:00 PM, Mabalacat, Weather by CustomWeather, © 2015

Note: Actual official high and low records may vary slightly from our data, if they occured in-between our weather recording intervals... More about our weather records

Advertising

Mabalacat weather history for previous 24 hours

 ConditionsComfort  
Time TempWeatherWind HumidityBarometerVisibility
11:00 PM
Sat, May 23
81 °FPartly cloudy.5 mph89%29.92 "HgN/A
10:00 PM81 °FPartly cloudy.5 mph89%29.92 "HgN/A
9:00 PM81 °FMostly cloudy.5 mph89%29.89 "HgN/A
8:00 PM82 °FMostly cloudy.8 mph79%29.86 "HgN/A
7:00 PM86 °FPassing clouds.2 mph66%29.83 "HgN/A
6:00 PM88 °FBroken clouds.9 mph59%29.80 "HgN/A
5:00 PM90 °FPartly sunny.9 mph55%29.80 "HgN/A
4:00 PM90 °FBroken clouds.9 mph67%29.80 "HgN/A
3:00 PM86 °FBroken clouds.9 mph70%29.83 "HgN/A
2:00 PM81 °FBroken clouds.18 mph74%29.83 "HgN/A
1:00 PM91 °FBroken clouds.9 mph56%29.80 "HgN/A
12:00 PM91 °FBroken clouds.5 mph52%29.83 "HgN/A
11:00 AM90 °FBroken clouds.5 mph59%29.86 "HgN/A
10:00 AM88 °FBroken clouds.2 mph66%29.86 "HgN/A
9:00 AM86 °FBroken clouds.2 mph75%29.86 "HgN/A
8:00 AM84 °FPartly sunny.2 mph74%29.89 "HgN/A
7:00 AM81 °FBroken clouds.2 mph89%29.86 "HgN/A
6:00 AM79 °FBroken clouds.2 mph89%29.86 "HgN/A
5:00 AM79 °FPassing clouds.2 mph89%29.86 "HgN/A
4:00 AM79 °FPassing clouds.2 mph89%29.86 "HgN/A
3:00 AM79 °FPassing clouds.2 mph94%29.86 "HgN/A
2:00 AM81 °FPassing clouds.3 mph84%29.86 "HgN/A
1:00 AM81 °FPartly cloudy.3 mph84%29.89 "HgN/A
12:00 AM79 °FMostly cloudy.6 mph94%29.89 "HgN/A
Weather by CustomWeather, © 2015

See weather overviewHow to use our weather pages